Regional Weather Roundup
Issued by NWS State College, PA

Home | Current Version | Previous Version | Text Only | Print | Product List | Glossary Off
Versions: 1 2 3 4 5 6 7 8 9 10 11 12 13 14 15 16 17 18 19 20 21 22 23 24 25 26 27 28 29 30 31 32 33 34 35 36 37 38 39 40 41 42 43 44 45 46 47 48 49 50

000
ASUS41 KCTP 062103
RWRCTP

REGIONAL WEATHER ROUNDUP
NATIONAL WEATHER SERVICE STATE COLLEGE PA
400 PM EST SAT FEB 06 2016

Note: "fair" indicates few or no clouds below 12,000 feet with no
significant weather and/or obstructions to visibility.

* = STATION THAT DOES NOT REPORT PRECIPITATION /E.G. RAIN...SNOW...ETC/
    THUNDER OR FOG.

PAZ002>004-007>009-013>016-020>023-029>032-062200-
WESTERN PENNSYLVANIA

CITY           SKY/WX    TMP DP  RH WIND       PRES   REMARKS
ERIE           SUNNY     35  18  49 SW12      30.21F
MEADVILLE      SUNNY     38  19  46 VRB6      30.17S
FRANKLIN*      SUNNY     37  18  44 SW8       30.19S
NEW CASTLE     FAIR      41  17  38 SW8G16    30.20F
BEAVER COUNTY  SUNNY     43  16  33 W8        30.19F
BUTLER*        CLOUDY    41  18  38 SW9       30.22S
PITTSBURGH INT CLOUDY    42  14  32 W12       30.19F
PITTSBURGH     CLOUDY    43  16  33 SW9       30.18F
INDIANA*       SUNNY     43  19  39 W10G17    30.21S
LATROBE        PTSUNNY   43  18  36 SW12      30.20F
WASHINGTON CO* MOSUNNY   43  14  31 SW13      30.20F
$$

PAZ004>006-010>012-017>019-024>028-033>037-041-042-045-046-049>053-062200-
CENTRAL PENNSYLVANIA

CITY           SKY/WX    TMP DP  RH WIND       PRES   REMARKS
BRADFORD       SUNNY     36  15  42 W6        30.12F
DUBOIS         SUNNY     38  16  40 W12       30.15S
CLEARFIELD     SUNNY     41  17  38 SW13      30.17S
JOHNSTOWN      SUNNY     38  16  40 W9        30.15S
ALTOONA        SUNNY     42  18  37 SW14      30.18F
STATE COLLEGE  SUNNY     43  18  36 SW13      30.18S
WILLIAMSPORT   PTSUNNY   46  17  31 SW7       30.19F
SELINSGROVE    PTSUNNY   42  19  39 S13       30.23F
FT INDIANTOWN  SUNNY     42  19  39 S9        30.25F
CAPITAL CITY   CLOUDY    42  18  37 SW10      30.27S
HARRISBURG     CLOUDY    42  18  37 SW9       30.26F
YORK           MOSUNNY   40  18  41 SW8       30.26F
$$

PAZ038>040-043-044-047-048-054-055-060>062-067>071-062200-
EASTERN PENNSYLVANIA

CITY           SKY/WX    TMP DP  RH WIND       PRES   REMARKS
SCRANTON       MOSUNNY   42  18  37 SW13G21   30.19S
MOUNT POCONO   MOSUNNY   34  18  52 S12       30.17F
ALLENTOWN      MOSUNNY   41  20  43 SW13      30.27F
QUAKERTOWN*    PTCLDY    37  21  52 SW8       30.28F
READING        MOSUNNY   41  20  43 S12       30.27F
LANCASTER      MOSUNNY   39  19  44 S12       30.27F
COATESVILLE    PTCLDY    39  21  48 VRB5      30.29F
POTTSTOWN      MOSUNNY   39  19  44 SW7       30.30F
BLUE BELL        N/A     37  23  56 SW5       30.29S
DOYLESTOWN     MOSUNNY   39  16  39 VRB6      30.27F
WILLOW GROVE   NOT AVBL
NORTH PHILA    MOSUNNY   42  20  41 SW9       30.32F
PHILADELPHIA   CLOUDY    43  19  38 SW10      30.32F
$$



USA.gov is the U.S. government's official web portal to all federal, state and local government web resources and services.